| time (UTC) | temp F | wind direction | speed MPH | gust MPH | rain 1hr in | rain 24hr in | rain mn in | humidity % | barometer mb |
| 20260506203100 | 46 | 0 | 0.0 | 0.0 | 0.00 | 0.54 | 0.47 | 93 | 1011.8 |
| 20260506202100 | 47 | 0 | 0.0 | 0.0 | 0.00 | 0.54 | 0.47 | 91 | 1011.7 |
| 20260506201101 | 48 | 0 | 0.0 | 0.0 | 0.00 | 0.54 | 0.47 | 88 | 1011.6 |
| 20260506200059 | 48 | 0 | 0.0 | 0.0 | 0.00 | 0.55 | 0.47 | 89 | 1011.5 |
| 20260506194100 | 49 | 0 | 0.0 | 0.0 | 0.00 | 0.57 | 0.47 | 94 | 1011.2 |
| 20260506193059 | 49 | 0 | 0.0 | 0.0 | 0.00 | 0.57 | 0.47 | 93 | 1011.2 |
| 20260506192058 | 50 | 0 | 0.0 | 0.0 | 0.00 | 0.59 | 0.47 | 92 | 1011.0 |
| 20260506191058 | 51 | 0 | 0.0 | 0.0 | 0.00 | 0.59 | 0.47 | 92 | 1010.9 |
| 20260506190100 | 51 | 0 | 0.0 | 0.0 | 0.00 | 0.59 | 0.47 | 91 | 1010.8 |
| 20260506185059 | 51 | 0 | 0.0 | 0.0 | 0.00 | 0.60 | 0.47 | 90 | 1010.7 |
| 20260506183059 | 53 | 0 | 0.0 | 0.0 | 0.00 | 0.61 | 0.47 | 84 | 1010.4 |
| 20260506182059 | 53 | 0 | 0.0 | 0.0 | 0.00 | 0.61 | 0.47 | 80 | 1010.3 |
| 20260506181057 | 53 | 0 | 0.0 | 0.0 | 0.00 | 0.63 | 0.47 | 80 | 1010.2 |
| 20260506180059 | 53 | 0 | 0.0 | 0.0 | 0.00 | 0.63 | 0.47 | 84 | 1010.0 |
| 20260506173057 | 53 | 0 | 0.0 | 0.0 | 0.00 | 0.65 | 0.47 | 89 | 1009.7 |
| 20260506172059 | 54 | 0 | 0.0 | 0.0 | 0.00 | 0.65 | 0.47 | 86 | 1009.5 |
| 20260506171057 | 54 | 0 | 0.0 | 0.0 | 0.00 | 0.66 | 0.47 | 84 | 1009.4 |
| 20260506170055 | 54 | 0 | 0.0 | 0.0 | 0.00 | 0.66 | 0.47 | 85 | 1009.4 |
| 20260506165055 | 54 | 0 | 0.0 | 0.0 | 0.00 | 0.67 | 0.47 | 84 | 1009.3 |
| 20260506164057 | 54 | 0 | 0.0 | 0.0 | 0.00 | 0.67 | 0.47 | 81 | 1009.2 |
| 20260506163056 | 54 | 0 | 0.0 | 0.0 | 0.00 | 0.67 | 0.47 | 83 | 1009.2 |
| 20260506162058 | 55 | 0 | 0.0 | 0.0 | 0.00 | 0.67 | 0.47 | 83 | 1009.3 |
| 20260506161057 | 55 | 0 | 0.0 | 0.0 | 0.00 | 0.67 | 0.47 | 81 | 1009.3 |
| 20260506160055 | 55 | 0 | 0.0 | 0.0 | 0.00 | 0.67 | 0.47 | 76 | 1009.2 |
| 20260506155057 | 55 | 0 | 0.0 | 0.0 | 0.00 | 0.67 | 0.47 | 77 | 1009.2 |
| 20260506154059 | 55 | 0 | 0.0 | 0.0 | 0.00 | 0.67 | 0.47 | 78 | 1009.2 |
| 20260506153057 | 55 | 0 | 0.0 | 0.0 | 0.00 | 0.67 | 0.47 | 78 | 1009.1 |
| 20260506152057 | 55 | 0 | 0.0 | 0.0 | 0.00 | 0.67 | 0.47 | 82 | 1009.1 |
| 20260506151058 | 54 | 0 | 0.0 | 0.0 | 0.00 | 0.67 | 0.47 | 84 | 1009.1 |
| 20260506150055 | 53 | 0 | 0.0 | 0.0 | 0.00 | 0.67 | 0.47 | 86 | 1009.1 |
| 20260506144056 | 53 | 0 | 0.0 | 0.0 | 0.00 | 0.67 | 0.47 | 91 | 1009.2 |
| 20260506142055 | 53 | 0 | 0.0 | 0.0 | 0.00 | 0.67 | 0.47 | 91 | 1009.3 |
| 20260506141056 | 53 | 0 | 0.0 | 0.0 | 0.00 | 0.67 | 0.47 | 90 | 1009.3 |
| 20260506135057 | 53 | 0 | 0.0 | 0.0 | 0.00 | 0.67 | 0.47 | 89 | 1009.3 |
| 20260506133057 | 53 | 0 | 0.0 | 0.0 | 0.00 | 0.67 | 0.47 | 90 | 1009.3 |
| 20260506132058 | 53 | 0 | 0.0 | 0.0 | 0.00 | 0.67 | 0.47 | 87 | 1009.3 |
| 20260506131058 | 53 | 0 | 0.0 | 0.0 | 0.00 | 0.67 | 0.47 | 84 | 1009.2 |
| 20260506125056 | 53 | 0 | 0.0 | 0.0 | 0.00 | 0.67 | 0.47 | 81 | 1009.1 |
| 20260506124055 | 53 | 0 | 0.0 | 0.0 | 0.00 | 0.67 | 0.47 | 82 | 1009.1 |
| 20260506123057 | 53 | 0 | 0.0 | 0.0 | 0.00 | 0.67 | 0.47 | 84 | 1009.0 |
| 20260506122056 | 53 | 0 | 0.0 | 0.0 | 0.00 | 0.67 | 0.47 | 85 | 1008.9 |
| 20260506121054 | 53 | 0 | 0.0 | 0.0 | 0.00 | 0.67 | 0.47 | 87 | 1008.9 |
| 20260506120054 | 52 | 0 | 0.0 | 0.0 | 0.00 | 0.67 | 0.47 | 89 | 1008.9 |
| 20260506115056 | 51 | 0 | 0.0 | 0.0 | 0.00 | 0.67 | 0.47 | 90 | 1008.9 |
| 20260506114057 | 51 | 0 | 0.0 | 0.0 | 0.00 | 0.67 | 0.47 | 93 | 1008.9 |
| 20260506113057 | 51 | 0 | 0.0 | 0.0 | 0.00 | 0.67 | 0.47 | 94 | 1008.9 |
| 20260506112057 | 51 | 0 | 0.0 | 0.0 | 0.00 | 0.67 | 0.47 | 92 | 1008.9 |
| 20260506110056 | 50 | 0 | 0.0 | 0.0 | 0.00 | 0.67 | 0.47 | 93 | 1009.0 |
| 20260506105055 | 50 | 0 | 0.0 | 0.0 | 0.01 | 0.67 | 0.47 | 95 | 1009.1 |
| 20260506103057 | 49 | 0 | 0.0 | 0.0 | 0.01 | 0.67 | 0.47 | 95 | 1009.0 |
| 20260506101055 | 49 | 0 | 0.0 | 0.0 | 0.02 | 0.67 | 0.47 | 96 | 1008.9 |
| 20260506095056 | 49 | 0 | 0.0 | 0.0 | 0.03 | 0.67 | 0.47 | 97 | 1008.7 |
| 20260506094056 | 49 | 0 | 0.0 | 0.0 | 0.03 | 0.66 | 0.46 | 97 | 1008.7 |
| 20260506093055 | 48 | 0 | 0.0 | 0.0 | 0.03 | 0.66 | 0.46 | 97 | 1008.6 |
| 20260506092055 | 48 | 0 | 0.0 | 0.0 | 0.03 | 0.66 | 0.46 | 97 | 1008.5 |
| 20260506091055 | 48 | 0 | 0.0 | 0.0 | 0.03 | 0.65 | 0.46 | 97 | 1008.5 |
| 20260506090057 | 48 | 0 | 0.0 | 0.0 | 0.04 | 0.65 | 0.46 | 97 | 1008.4 |
| 20260506085055 | 48 | 0 | 0.0 | 0.0 | 0.03 | 0.65 | 0.45 | 98 | 1008.3 |
| 20260506084055 | 48 | 0 | 0.0 | 0.0 | 0.03 | 0.64 | 0.44 | 98 | 1008.2 |
| 20260506082054 | 48 | 0 | 0.0 | 0.0 | 0.02 | 0.63 | 0.43 | 98 | 1008.1 |
| 20260506081054 | 48 | 0 | 0.0 | 0.0 | 0.03 | 0.63 | 0.43 | 99 | 1008.0 |
| 20260506073055 | 47 | 0 | 0.0 | 0.0 | 0.02 | 0.61 | 0.41 | 99 | 1007.7 |
| 20260506071055 | 47 | 0 | 0.0 | 0.0 | 0.03 | 0.61 | 0.41 | 10 | 1007.6 |
| 20260506061054 | 47 | 0 | 0.0 | 0.0 | 0.09 | 0.58 | 0.39 | 99 | 1007.5 |
| 20260506051053 | 47 | 0 | 0.0 | 0.0 | 0.08 | 0.55 | 0.33 | 98 | 1007.5 |
| 20260506045052 | 47 | 0 | 0.0 | 0.0 | 0.08 | 0.53 | 0.30 | 98 | 1007.4 |
| 20260506042052 | 47 | 0 | 0.0 | 0.0 | 0.05 | 0.54 | 0.27 | 97 | 1007.3 |
| 20260506041053 | 47 | 0 | 0.0 | 0.0 | 0.05 | 0.54 | 0.26 | 97 | 1007.3 |
| 20260506040054 | 47 | 0 | 0.0 | 0.0 | 0.04 | 0.54 | 0.25 | 98 | 1007.3 |
| 20260506035056 | 47 | 0 | 0.0 | 0.0 | 0.04 | 0.53 | 0.24 | 98 | 1007.3 |
| 20260506030052 | 48 | 0 | 0.0 | 0.0 | 0.03 | 0.50 | 0.21 | 97 | 1007.4 |
| 20260506025054 | 48 | 0 | 0.0 | 0.0 | 0.03 | 0.50 | 0.21 | 97 | 1007.4 |
| 20260506024053 | 48 | 0 | 0.0 | 0.0 | 0.03 | 0.49 | 0.20 | 97 | 1007.5 |
| 20260506022054 | 48 | 0 | 0.0 | 0.0 | 0.04 | 0.49 | 0.20 | 97 | 1007.5 |
| 20260506021054 | 48 | 0 | 0.0 | 0.0 | 0.04 | 0.48 | 0.20 | 97 | 1007.5 |
| 20260506015055 | 49 | 0 | 0.0 | 0.0 | 0.04 | 0.46 | 0.18 | 97 | 1007.5 |
| 20260506014054 | 49 | 0 | 0.0 | 0.0 | 0.04 | 0.46 | 0.18 | 98 | 1007.5 |
| 20260506012053 | 49 | 0 | 0.0 | 0.0 | 0.05 | 0.46 | 0.17 | 98 | 1007.6 |
| 20260506011054 | 49 | 0 | 0.0 | 0.0 | 0.05 | 0.45 | 0.17 | 98 | 1007.6 |
| 20260506005053 | 49 | 0 | 0.0 | 0.0 | 0.06 | 0.44 | 0.16 | 98 | 1007.7 |
| 20260506003052 | 49 | 0 | 0.0 | 0.0 | 0.06 | 0.43 | 0.14 | 98 | 1007.8 |
| 20260506002055 | 49 | 0 | 0.0 | 0.0 | 0.06 | 0.42 | 0.13 | 98 | 1007.9 |
| 20260506001053 | 49 | 0 | 0.0 | 0.0 | 0.06 | 0.41 | 0.13 | 98 | 1007.9 |
| 20260506000056 | 49 | 0 | 0.0 | 0.0 | 0.06 | 0.40 | 0.12 | 98 | 1008.0 |
| 20260505235056 | 49 | 0 | 0.0 | 0.0 | 0.06 | 0.39 | 0.11 | 98 | 1008.1 |
| 20260505233055 | 50 | 0 | 0.0 | 0.0 | 0.07 | 0.38 | 0.09 | 97 | 1008.2 |
| 20260505232057 | 50 | 0 | 0.0 | 0.0 | 0.07 | 0.37 | 0.09 | 97 | 1008.2 |
| 20260505230056 | 50 | 0 | 0.0 | 0.0 | 0.07 | 0.35 | 0.07 | 97 | 1008.3 |
| 20260505224055 | 50 | 0 | 0.0 | 0.0 | 0.06 | 0.33 | 0.05 | 97 | 1008.4 |
| 20260505223057 | 50 | 0 | 0.0 | 0.0 | 0.06 | 0.31 | 0.03 | 97 | 1008.4 |
| 20260505222057 | 50 | 0 | 0.0 | 0.0 | 0.06 | 0.31 | 0.02 | 97 | 1008.4 |
| 20260505221058 | 50 | 0 | 0.0 | 0.0 | 0.05 | 0.30 | 0.02 | 97 | 1008.4 |
| 20260505220055 | 50 | 0 | 0.0 | 0.0 | 0.05 | 0.29 | 0.01 | 97 | 1008.5 |
| 20260505215100 | 50 | 0 | 0.0 | 0.0 | 0.06 | 0.28 | 0.28 | 97 | 1008.5 |
| 20260505213058 | 50 | 0 | 0.0 | 0.0 | 0.05 | 0.27 | 0.27 | 97 | 1008.7 |
| 20260505210057 | 50 | 0 | 0.0 | 0.0 | 0.05 | 0.25 | 0.25 | 97 | 1008.8 |
| 20260505205057 | 50 | 0 | 0.0 | 0.0 | 0.05 | 0.24 | 0.24 | 97 | 1008.8 |